[TLELIST] Archives

 

[list_settings.list_name] Current TLEs

November 14th 2011 PST

HST 1 20580U 90037B 11315.94434408 .00003238 00000-0 23007-3 0 8867 2 20580 028.4688 131.0487 0003214 253.7100 106.3240 15.01782439981885 ISS (ZARYA) 1 25544U 98067A 11317.43923700 .00025400 00000-0 30934-3 0 4247 2 25544 051.6402 129.5626 0021849 053.2994 033.8338 15.60068263744210 CXO 1 25867U 99040B 11317.04166667 -.00000155 00000-0 00000+0 0 6661 2 25867 070.5467 021.2062 8709852 277.3516 354.2519 00.37802476 8332 ____________________________________________________________________ These 2-Line ...Continue Reading

[list_settings.list_name] Current TLEs

November 13th 2011 PST

HST 1 20580U 90037B 11315.94434408 .00003238 00000-0 23007-3 0 8867 2 20580 028.4688 131.0487 0003214 253.7100 106.3240 15.01782439981885 ISS (ZARYA) 1 25544U 98067A 11316.20428241 .00027019 00000-0 32932-3 0 4160 2 25544 051.6400 135.7745 0021792 048.2449 298.6118 15.60010377744013 CXO 1 25867U 99040B 11317.04166667 -.00000155 00000-0 00000+0 0 6661 2 25867 070.5467 021.2062 8709852 277.3516 354.2519 00.37802476 8332 ____________________________________________________________________ These 2-Line ...Continue Reading

[list_settings.list_name] Current TLEs

November 12th 2011 PST

HST 1 20580U 90037B 11314.94749233 .00003090 00000-0 21896-3 0 8850 2 20580 028.4690 137.5655 0003283 242.5328 117.5009 15.01775268981733 ISS (ZARYA) 1 25544U 98067A 11315.24309028 .00028609 00000-0 34887-3 0 4116 2 25544 051.6402 140.6084 0021790 045.2961 299.9839 15.59964389743865 CXO 1 25867U 99040B 11317.04166667 -.00000155 00000-0 00000+0 0 6661 2 25867 070.5467 021.2062 8709852 277.3516 354.2519 00.37802476 8332 ____________________________________________________________________ These 2-Line ...Continue Reading

[list_settings.list_name] Current TLEs

November 11th 2011 PST

HST 1 20580U 90037B 11313.95063566 .00002986 00000-0 21124-3 0 8844 2 20580 028.4689 144.0809 0003298 231.7151 128.3185 15.01768669981580 ISS (ZARYA) 1 25544U 98067A 11314.42579633 .00033215 00000-0 40437-3 0 4089 2 25544 051.6386 144.7210 0021785 042.1913 030.2978 15.59925535743746 CXO 1 25867U 99040B 11314.41666667 -.00000169 00000-0 00000+0 0 6647 2 25867 070.5338 021.3803 8708996 277.3636 356.8228 00.37803156 8324 ____________________________________________________________________ These 2-Line ...Continue Reading

[list_settings.list_name] Current TLEs

November 10th 2011 PST

HST 1 20580U 90037B 11312.62148814 .00002984 00000-0 21115-3 0 8834 2 20580 028.4691 152.7722 0003462 217.7126 142.3295 15.01761083981381 ISS (ZARYA) 1 25544U 98067A 11313.14948076 .00027878 00000-0 34181-3 0 4018 2 25544 051.6410 151.1370 0021637 038.2484 062.2085 15.59840928743542 CXO 1 25867U 99040B 11314.41666667 -.00000169 00000-0 00000+0 0 6647 2 25867 070.5338 021.3803 8708996 277.3636 356.8228 00.37803156 8324 ____________________________________________________________________ These 2-Line ...Continue Reading

[list_settings.list_name] Current TLEs

November 9th 2011 PST

HST 1 20580U 90037B 11312.02336881 .00003000 00000-0 21234-3 0 8811 2 20580 028.4678 156.6861 0003292 210.4380 149.6002 15.01757753981291 ISS (ZARYA) 1 25544U 98067A 11312.43921949 .00027731 00000-0 34058-3 0 3974 2 25544 051.6413 154.7062 0021588 035.7053 033.7251 15.59800095743438 CXO 1 25867U 99040B 11309.12500000 .00000031 00000-0 00000+0 0 6633 2 25867 070.4905 021.7726 8710501 277.3392 356.4814 00.37807879 8306 ____________________________________________________________________ These 2-Line ...Continue Reading

[list_settings.list_name] Current TLEs

November 8th 2011 PST

HST 1 20580U 90037B 11307.90296251 +.00002828 +00000-0 +19954-3 0 08787 2 20580 028.4686 183.6078 0003830 171.1474 188.9549 15.01734480980670 ISS (ZARYA) 1 25544U 98067A 11309.96412037 +.00025121 +00000-0 +31097-3 0 03848 2 25544 051.6404 167.1488 0021562 026.4611 175.9454 15.59654384743046 CXO 1 25867U 99040B 11309.12500000 .00000031 00000-0 00000+0 0 6633 2 25867 070.4905 021.7726 8710501 277.3392 356.4814 00.37807879 8306 ____________________________________________________________________ These 2-Line ...Continue Reading

[list_settings.list_name] Current TLEs

November 7th 2011 PST

HST 1 20580U 90037B 11307.90296251 +.00002828 +00000-0 +19954-3 0 08787 2 20580 028.4686 183.6078 0003830 171.1474 188.9549 15.01734480980670 ISS (ZARYA) 1 25544U 98067A 11308.93718750 +.00024085 +00000-0 +29906-3 0 03782 2 25544 051.6409 172.3124 0021645 022.4112 170.2640 15.59598424742888 CXO 1 25867U 99040B 11309.12500000 .00000031 00000-0 00000+0 0 6633 2 25867 070.4905 021.7726 8710501 277.3392 356.4814 00.37807879 8306 ____________________________________________________________________ These 2-Line ...Continue Reading

[list_settings.list_name] Current TLEs

November 6th 2011 PST

HST 1 20580U 90037B 11307.90296251 +.00002828 +00000-0 +19954-3 0 08787 2 20580 028.4686 183.6078 0003830 171.1474 188.9549 15.01734480980670 ISS (ZARYA) 1 25544U 98067A 11307.82295421 +.00023951 +00000-0 +29810-3 0 03701 2 25544 051.6405 177.9124 0021574 018.3272 034.3642 15.59542061742717 CXO 1 25867U 99040B 11309.12500000 .00000031 00000-0 00000+0 0 6633 2 25867 070.4905 021.7726 8710501 277.3392 356.4814 00.37807879 8306 ____________________________________________________________________ These 2-Line ...Continue Reading

[list_settings.list_name] Current TLEs

November 5th 2011 PST

HST 1 20580U 90037B 11306.10856795 .00002440 00000-0 17053-3 0 8770 2 20580 028.4695 195.3338 0003420 146.9247 213.1679 15.01722135980402 ISS (ZARYA) 1 25544U 98067A 11307.39278837 .00028613 00000-0 35472-3 0 3672 2 25544 051.6412 180.0751 0021741 016.7654 139.2415 15.59531792742642 CXO 1 25867U 99040B 11309.12500000 .00000031 00000-0 00000+0 0 6633 2 25867 070.4905 021.7726 8710501 277.3392 356.4814 00.37807879 8306 ____________________________________________________________________ These 2-Line ...Continue Reading
  • This mailing list is a public mailing list - anyone may join or leave, at any time.
  • This mailing list is announce-only.

International Space Station (ISS) / Hubble Space Telescope (HST) / Chandra X-Ray Observatory Orbital Data via EMAIL

Privacy Policy:

Private list